Tracking 19625 objects as of 26-May-2019
HD Live streaming from Space Station
objects crossing your sky now
Watch Starlink satellites crossing your sky!

INTELSAT 6B (PAS 6B)

Track INTELSAT 6B (PAS 6B) now!
INTELSAT 6B (PAS 6B) is classified as:


NORAD ID: 25585
Int'l Code: 1998-075A
Perigee: 36,051.4 km
Apogee: 36,169.5 km
Inclination: 8.4 °
Period: 1,452.3 minutes
Semi major axis: 42481 km
RCS: 21.1435 m2 (large)
Launch date: December 22, 1998
Source: United States (US)
Launch site: FRENCH GUIANA (FRGUI)

voice and video communcations; 32 Ku-band; South America.
aabbcc
Your satellite tracking list
Your tracking list is empty




NASA's NSSDC Master Catalog

Two Line Element Set (TLE):
1 25585U 98075A   19145.84562609 +.00000041 +00000-0 +00000-0 0  9999
2 25585 008.3780 047.0024 0013900 090.4459 090.1201 00.99152452074410
Source of the keplerian elements: AFSPC